Location: *
(42.1160°S, 166.9240°W)
Time: 11:16:48
(UTC+00:00)

Daily predictions for brighter satellites

Satellite Brightness Start Highest point End
(mag) Time Altitude Azimuth Time Altitude Azimuth Time Altitude Azimuth
ATLAS 3B R/B 4.0 14:31:43 36° ESE 14:31:43 36° ESE 14:37:36 10° ENE
Cosmos 2344 4.2 15:15:32 43° SW 15:20:34 89° ESE 15:29:55 10° NE
ATLAS 2AS CENTAUR R/B 3.0 15:23:05 49° SE 15:23:05 49° SE 15:27:22 10° SE
Cosmos 1937 Rocket 4.2 15:30:33 54° E 15:30:33 54° E 15:35:09 10° NNE
Ariane Rocket 3.9 15:32:27 10° NE 15:37:20 48° ESE 15:38:50 37° SSE
IDEFIX/ARIANE 42P 3.5 15:32:53 10° NE 15:37:51 45° ESE 15:40:33 25° SSE
Meteor 1-14 Rocket 4.2 15:41:56 74° ESE 15:42:08 75° E 15:47:41 10° NNE
BREEZE-M TANK 4.2 15:43:43 26° ESE 15:43:43 26° ESE 15:45:48 10° E
Cosmos 2237 Rocket 4.1 15:52:42 17° S 15:52:42 17° S 15:54:12 10° S
Cosmos 371 Rocket 3.7 15:49:38 57° NE 15:50:15 63° ENE 15:55:07 10° SSE
SL-16 R/B 2.4 15:52:39 57° S 15:52:39 57° S 15:57:17 10° SSE
Cosmos 2297 4.1 15:53:20 50° NNW 15:53:20 50° NNW 15:57:43 10° N
Cosmos 1607 3.9 15:53:36 61° NW 15:53:36 61° NW 15:59:04 10° NNE
USA 234 4.2 15:48:40 10° ESE 15:55:00 46° NE 16:01:16 10° NNW
Cosmos 1428 Rocket 4.3 15:56:12 69° W 15:56:20 69° W 16:02:28 10° N
Cosmos 1346 Rocket 4.5 15:53:50 10° NNE 15:57:23 33° E 16:00:56 10° SSE
Cosmos 2266 Rocket 4.3 15:52:02 10° S 15:58:07 62° E 16:04:11 10° NNE
Cosmos 2298 Rocket 4.2 16:04:01 57° NNW 16:04:01 57° NNW 16:08:33 10° N
Cosmos 1241 Rocket 4.3 16:00:51 34° NNW 16:03:43 88° ENE 16:09:59 10° SSE
Cosmos 841 Rocket 3.8 16:01:03 10° N 16:06:13 66° ENE 16:11:26 10° SSE
Cosmos 44 Rocket 3.3 16:07:26 72° SW 16:07:58 86° WNW 16:13:07 10° NNE
Meteor 1-20 Rocket 4.1 16:05:09 22° S 16:08:52 84° E 16:14:21 10° N
Cosmos 1606 3.5 16:05:48 10° N 16:09:36 52° E 16:13:26 10° SSE
Cosmos 2180 Rocket 4.5 16:03:35 10° NNW 16:09:53 62° W 16:16:19 10° S
Cosmos 44 3.5 16:08:50 52° SSW 16:10:13 82° ESE 16:15:32 10° NE
USA 238 DEB 3.6 16:08:13 39° SW 16:11:09 83° WNW 16:18:10 10° NNE
USA 238 3.6 16:08:16 39° SW 16:11:15 84° WNW 16:18:16 10° NNE
Okean 1-7 4.0 16:14:05 36° S 16:14:05 36° S 16:16:48 10° S
Cosmos 2285 Rocket 4.3 16:06:07 10° N 16:12:26 67° ENE 16:18:53 10° SSE
Gbstr 26 Del rocket 4.1 16:13:11 33° S 16:13:39 34° SSE 16:17:29 10° E
Cosmos 2279 Rocket 4.3 16:16:27 44° WSW 16:16:27 44° WSW 16:21:52 10° S
CZ-2C R/B 4.0 16:11:39 10° SSE 16:16:10 65° ENE 16:20:41 10° N
Lacrosse 5 rocket 3.3 16:18:22 16° SSE 16:18:22 16° SSE 16:19:32 10° SSE
ATLAS 3B R/B 2.9 16:19:01 38° WSW 16:21:45 58° WNW 16:29:08 10° NNE
YAOGAN 1 3.8 16:17:51 10° NE 16:21:57 41° ESE 16:26:07 10° S
Genesis I 3.9 16:24:08 40° NNW 16:24:08 40° NNW 16:26:58 10° NNE
Cosmos 2150 Rocket 4.2 16:25:13 46° WNW 16:25:13 46° WNW 16:30:11 10° N
Cosmos 332 Rocket 4.1 16:26:53 46° SW 16:26:53 46° SW 16:31:15 10° S
Cosmos 1943 Rocket 4.1 16:21:58 10° S 16:26:35 25° SE 16:31:10 10° ENE
Cosmos 990 Rocket 4.1 16:28:18 45° WSW 16:29:10 50° WNW 16:34:11 10° N
Cosmos 2369 Rocket 3.0 16:28:23 10° SSW 16:33:51 49° ESE 16:39:17 10° NE
MSX 3.8 16:28:01 10° NNE 16:33:51 88° WNW 16:39:44 10° SSW
Cosmos 1763 Rocket 3.4 16:31:01 21° NW 16:34:15 55° WSW 16:39:18 10° SSE
Cosmos 1782 2.7 16:30:36 10° NNW 16:34:39 64° W 16:38:46 10° S
SJ-7 4.5 16:33:01 10° NNE 16:37:19 88° E 16:41:10 13° SSW
SMAP 3.0 16:36:52 10° NNE 16:41:35 86° W 16:46:20 10° SSW
Cosmos 1814 Rocket 4.5 16:41:20 34° W 16:42:21 37° WSW 16:47:16 10° S
Meteor 1-10 Rocket 4.2 16:37:43 10° NNW 16:43:34 76° W 16:49:35 10° S
CZ-2C R/B 2.6 16:39:33 10° N 16:44:24 51° W 16:48:30 15° SSW
PSLV R/B 3.3 16:44:13 54° WNW 16:44:51 75° N 16:48:15 10° E
Okean 2 Rocket 3.4 16:44:14 32° SW 16:45:45 43° W 16:50:03 10° NNW
IRS-1A Rocket 4.2 16:40:47 10° N 16:46:26 71° WNW 16:52:04 10° SSW
Cosmos 1536 4.5 16:42:35 10° S 16:46:27 36° ESE 16:50:14 10° NE
Cosmos 1461 4.4 16:49:05 21° NW 16:49:05 21° NW 16:51:43 10° NNW
NOSS 3-2 (C) 3.7 16:43:16 16° SSW 16:48:45 72° SE 16:54:45 10° NE
CENTAUR R/B 3.9 16:43:34 10° SSW 16:48:54 28° SE 16:53:49 10° E
CZ-4 R/B 1.3 16:45:36 10° N 16:49:39 67° WNW 16:52:53 16° SSW
BREEZE-M DEB (TANK) 3.9 16:50:23 24° SSW 16:50:55 25° S 16:53:06 10° SE
CSL-04 Debris 4.4 16:46:17 10° N 16:51:28 45° W 16:56:15 12° SSW
Meteor 1-11 Rocket 3.9 16:46:20 10° S 16:52:09 77° E 16:57:45 10° NNE
RESURS DK-1 4.4 16:49:23 10° N 16:53:05 31° ENE 16:56:49 10° SE
Cosmos 1125 Rocket 3.5 16:48:16 10° SSW 16:53:36 87° ESE 16:58:54 10° NNE
Cosmos 1602 3.6 16:51:23 10° S 16:55:20 88° W 16:59:14 10° N
BREEZE-M DEB (TANK) 2.9 16:51:51 19° WNW 16:55:45 59° SSW 16:58:12 10° SE
Cosmos 836 Rocket 4.5 16:59:05 10° NNW 17:04:23 66° WSW 17:09:45 10° SSE
Tiangong 2 2.9 17:02:01 10° NW 17:04:50 30° NNE 17:07:41 10° E
Thor Agena Rocket 4.3 17:00:38 10° SSE 17:05:47 57° ENE 17:10:55 10° N
Meteor 2-6 Rocket 4.3 17:01:23 10° NNW 17:06:53 53° WSW 17:12:37 10° S
NOSS 3-2 (A) 3.4 17:01:26 15° SW 17:06:56 69° WNW 17:12:51 10° NNE
Cosmos 1244 Rocket 4.4 17:01:50 10° S 17:08:04 82° W 17:14:15 10° N
COSMOS 2455 3.6 17:02:39 10° SSW 17:08:36 52° SE 17:14:28 10° NE
CZ-4 R/B 4.4 17:07:13 10° N 17:11:23 68° WNW 17:15:38 10° SSW
CSL-04 DEB 4.3 17:08:02 10° NNE 17:12:00 84° WNW 17:16:03 10° SSW
TIMED 4.5 17:07:40 10° SSW 17:12:07 78° WNW 17:16:30 10° NNE
ATLAS 2AS CENTAUR R/B 3.6 17:10:34 18° WSW 17:12:50 22° SW 17:17:26 10° SSE
NOSS 3-4 (A) 4.0 17:06:19 10° NW 17:14:12 84° SW 17:21:55 10° SE
NOSS 3-4 (C) 4.0 17:06:25 10° NW 17:14:18 84° SW 17:22:01 10° SE
Cosmos 1674 Rocket 3.5 17:09:59 10° NNW 17:14:28 74° W 17:18:58 10° S
Cosmos 1603 4.0 17:09:26 10° NW 17:14:48 44° WSW 17:20:13 10° SSE
Cosmos 1633 3.3 17:12:37 16° SW 17:15:01 32° W 17:18:19 10° NNW
Cosmos 540 Rocket 3.4 17:10:56 10° NNW 17:16:02 63° WSW 17:21:12 10° SSE
Ariane Rocket 4.2 17:12:42 10° NW 17:16:31 21° W 17:19:02 15° WSW
CORIOLIS 4.4 17:11:40 10° N 17:16:58 50° W 17:22:18 10° SSW
IDEFIX/ARIANE 42P 3.7 17:13:30 10° NW 17:17:39 23° W 17:21:21 12° SW
SPOT 3 Rocket 3.6 17:12:33 10° N 17:17:46 69° WNW 17:23:03 10° SSW
MOS 1 4.3 17:12:33 10° N 17:18:13 63° WNW 17:23:57 10° SSW
EO 1 Del DPAF 4.5 17:20:07 10° SSW 17:23:08 21° WSW 17:26:08 10° WNW
Cosmos 1484 Rocket 3.2 17:20:46 10° NNW 17:24:17 38° W 17:27:53 10° SSW
Cosmos 1300 Rocket 3.5 17:21:43 10° SSW 17:26:04 61° W 17:30:21 10° N
Cosmos 2151 Rocket 4.3 17:23:37 10° SSW 17:27:33 31° W 17:31:27 10° NNW
Okean 3 3.5 17:24:41 10° N 17:28:58 90° NW 17:33:18 10° S
Cosmos 1346 Rocket 4.2 17:31:12 10° WNW 17:33:52 17° WSW 17:36:35 10° SSW
Cosmos 2263 4.2 17:28:34 10° SSW 17:34:16 79° WNW 17:39:56 10° NNE
Meteor 1-28 Rocket 3.4 17:32:25 10° S 17:36:09 49° WSW 17:39:48 10° NNW
Meteor 1-27 Rocket 4.1 17:30:50 10° NNW 17:36:33 47° WSW 17:42:18 10° S
SL-16 R/B 3.9 17:34:36 11° WSW 17:36:43 14° SW 17:39:31 10° SSW
USA 234 3.4 17:31:35 10° SE 17:38:04 58° SSW 17:44:31 10° WNW
COSMO-SKYMED 1 2.6 17:34:07 10° S 17:38:29 59° WSW 17:42:46 10° NNW
Blok-L 4.4 17:34:46 10° SW 17:40:15 80° SE 17:46:40 10° NE
Resurs 01 Rocket 3.7 17:39:44 10° NE 17:43:28 27° ESE 17:47:15 10° S
Cosmos 1340 2.8 17:45:40 10° NNW 17:49:25 56° WSW 17:53:14 10° S
Okean 1 Rocket 3.4 17:48:06 10° SSW 17:52:19 45° W 17:56:32 10° NNW
NOAA 12 4.2 17:47:07 10° N 17:52:27 76° WNW 17:57:51 10° SSW
Cosmos 1378 Rocket 3.7 17:48:38 10° NNW 17:52:53 51° WSW 17:57:13 10° S
S3M 4.1 17:48:48 10° NNW 17:54:54 60° W 18:01:02 10° S
